Location: Chervonnoye
(48.6000°N, 34.4000°E)
Time: 14:55:55
(UTC+00:00)

Cosmos 2297 - Visible Passes

Search period start: 20 April 2021 00:00
Search period end: 30 April 2021 00:00
Orbit: 836 x 858 km, 71.0° (Epoch: 20 April)

Date Brightness Start Highest point End Pass type
(mag) Time Alt. Az. Time Alt. Az. Time Alt. Az.
20 Apr 4.1 00:33:43 23° S 00:37:13 58° ESE 00:42:50 10° NE visible
21 Apr 4.2 00:20:48 27° S 00:23:49 57° ESE 00:29:24 10° NE visible
21 Apr 4.8 02:03:17 10° WSW 02:08:19 31° NW 02:13:22 10° NNE visible
22 Apr 4.2 00:07:50 31° S 00:10:25 56° ESE 00:16:00 10° NE visible
22 Apr 4.8 01:49:51 10° WSW 01:54:54 31° NW 01:59:58 10° NNE visible
22 Apr 4.2 23:54:50 35° SSE 23:57:01 54° ESE 00:02:35 10° NE visible
23 Apr 4.8 01:36:46 12° WSW 01:41:29 32° NW 01:46:34 10° NNE visible
23 Apr 4.2 23:41:47 38° SSE 23:43:37 53° ESE 23:49:10 10° NE visible
24 Apr 4.8 01:23:43 13° WSW 01:28:04 32° NW 01:33:10 10° NNE visible
24 Apr 4.2 23:28:43 41° SSE 23:30:12 52° ESE 23:35:45 10° NE visible
25 Apr 4.8 01:10:38 15° WSW 01:14:38 33° NW 01:19:46 10° NNE visible
25 Apr 4.1 23:15:36 44° SSE 23:16:49 51° ESE 23:22:19 10° NE visible
26 Apr 4.8 00:57:31 17° WSW 01:01:13 33° NW 01:06:21 10° NNE visible
26 Apr 4.1 23:02:27 45° SE 23:03:24 50° ESE 23:08:54 10° NE visible
27 Apr 4.8 00:44:22 18° WSW 00:47:47 34° NW 00:52:57 10° NNE visible
27 Apr 4.1 22:49:16 46° SE 22:50:00 49° ESE 22:55:29 10° NE visible
28 Apr 4.8 00:31:11 20° W 00:34:22 34° NW 00:39:33 10° NNE visible
28 Apr 4.1 22:36:03 47° SE 22:36:36 48° ESE 22:42:03 10° NE visible
29 Apr 4.7 00:17:58 21° W 00:20:57 35° NW 00:26:09 10° NNE visible
29 Apr 4.1 22:22:49 46° ESE 22:23:12 47° ESE 22:28:38 10° NE visible
